When you browse on this site, cookies collect data to enhance your experience and personalize the content and advertising you see.
Visit our Privacy Policy to learn more. By continuing to use the site, you agree to this use of cookies and data.

Meteo orario Tynytsya

Oggi, 13 Agosto, Giovedi

Tempo Temperatura Precipitazioni Vento Pressione Umidità
00:00 +11°C° 0 mm 3 m/s 749 mm Hg 92%
01:00 +11°C° 0 mm 3 m/s 749 mm Hg 93%
02:00 +10°C° 0 mm 3 m/s 749 mm Hg 94%
03:00 +10°C° 0 mm 3 m/s 749 mm Hg 95%
04:00 +10°C° 0 mm 3 m/s 749 mm Hg 96%
05:00 +10°C° 0 mm 3 m/s 749 mm Hg 96%
06:00 +11°C° 0 mm 3 m/s 749 mm Hg 89%
07:00 +13°C° 0 mm 3 m/s 749 mm Hg 81%
08:00 +16°C° 0 mm 3 m/s 749 mm Hg 74%
09:00 +17°C° 0 mm 4 m/s 749 mm Hg 69%
10:00 +19°C° 0 mm 4 m/s 749 mm Hg 63%
11:00 +20°C° 0 mm 4 m/s 749 mm Hg 58%
12:00 +20°C° 0.1 mm 4 m/s 749 mm Hg 57%
13:00 +20°C° 0.1 mm 4 m/s 749 mm Hg 55%
14:00 +20°C° 0.1 mm 4 m/s 748 mm Hg 53%
15:00 +20°C° 0 mm 4 m/s 748 mm Hg 56%
16:00 +20°C° 0 mm 4 m/s 748 mm Hg 59%
17:00 +19°C° 0 mm 4 m/s 748 mm Hg 61%
18:00 +17°C° 0 mm 4 m/s 748 mm Hg 69%
19:00 +16°C° 0 mm 3 m/s 748 mm Hg 76%
20:00 +13°C° 0 mm 3 m/s 748 mm Hg 83%
21:00 +12°C° 0 mm 3 m/s 748 mm Hg 84%
22:00 +12°C° 0 mm 3 m/s 748 mm Hg 86%
23:00 +11°C° 0 mm 3 m/s 748 mm Hg 87%

Domani, 14 Agosto, Venerdi

Tempo Temperatura Precipitazioni Vento Pressione Umidità
00:00 +11°C° 0 mm 3 m/s 749 mm Hg 88%
01:00 +10°C° 0 mm 2 m/s 749 mm Hg 89%
02:00 +10°C° 0 mm 2 m/s 749 mm Hg 91%
03:00 +10°C° 0 mm 3 m/s 749 mm Hg 92%
04:00 +9°C° 0 mm 3 m/s 749 mm Hg 93%
05:00 +9°C° 0 mm 3 m/s 749 mm Hg 95%
06:00 +11°C° 0 mm 3 m/s 749 mm Hg 87%
07:00 +12°C° 0 mm 3 m/s 749 mm Hg 79%
08:00 +14°C° 0 mm 3 m/s 749 mm Hg 72%
09:00 +17°C° 0 mm 3 m/s 749 mm Hg 65%
10:00 +18°C° 0 mm 4 m/s 749 mm Hg 58%
11:00 +19°C° 0 mm 4 m/s 749 mm Hg 52%
12:00 +19°C° 0 mm 4 m/s 749 mm Hg 51%
13:00 +19°C° 0 mm 4 m/s 749 mm Hg 51%
14:00 +20°C° 0 mm 4 m/s 749 mm Hg 50%
15:00 +19°C° 0 mm 4 m/s 749 mm Hg 53%
16:00 +19°C° 0 mm 3 m/s 749 mm Hg 56%
17:00 +19°C° 0 mm 3 m/s 749 mm Hg 58%
18:00 +17°C° 0 mm 3 m/s 749 mm Hg 65%
19:00 +14°C° 0 mm 3 m/s 750 mm Hg 72%
20:00 +14°C° 0 mm 2 m/s 750 mm Hg 79%
21:00 +13°C° 0 mm 2 m/s 750 mm Hg 80%
22:00 +13°C° 0 mm 2 m/s 750 mm Hg 82%
23:00 +12°C° 0 mm 2 m/s 750 mm Hg 83%

Dopodomani, 15 Agosto, Sabato

Tempo Temperatura Precipitazioni Vento Pressione Umidità
00:00 +12°C° 0 mm 2 m/s 750 mm Hg 85%
01:00 +10°C° 0 mm 2 m/s 750 mm Hg 86%
02:00 +10°C° 0 mm 2 m/s 751 mm Hg 88%
03:00 +9°C° 0 mm 2 m/s 751 mm Hg 88%
04:00 +10°C° 0 mm 1 m/s 751 mm Hg 88%
05:00 +10°C° 0 mm 1 m/s 751 mm Hg 88%
06:00 +12°C° 0 mm 2 m/s 751 mm Hg 81%
07:00 +14°C° 0 mm 2 m/s 751 mm Hg 74%
08:00 +16°C° 0 mm 2 m/s 751 mm Hg 67%
09:00 +17°C° 0 mm 2 m/s 751 mm Hg 62%
10:00 +18°C° 0 mm 2 m/s 751 mm Hg 57%
11:00 +20°C° 0 mm 2 m/s 751 mm Hg 51%
12:00 +20°C° 0 mm 2 m/s 751 mm Hg 50%
13:00 +21°C° 0 mm 2 m/s 751 mm Hg 49%
14:00 +21°C° 0 mm 2 m/s 751 mm Hg 47%
15:00 +21°C° 0 mm 2 m/s 751 mm Hg 49%
16:00 +21°C° 0 mm 2 m/s 751 mm Hg 50%
17:00 +21°C° 0 mm 2 m/s 751 mm Hg 52%
18:00 +19°C° 0 mm 2 m/s 751 mm Hg 58%
19:00 +18°C° 0 mm 1 m/s 751 mm Hg 64%
20:00 +15°C° 0 mm 1 m/s 751 mm Hg 70%
21:00 +14°C° 0 mm 1 m/s 751 mm Hg 72%
22:00 +14°C° 0 mm 1 m/s 751 mm Hg 74%
23:00 +13°C° 0 mm 1 m/s 751 mm Hg 76%

16 Agosto, Domenica

Tempo Temperatura Precipitazioni Vento Pressione Umidità
00:00 +13°C° 0 mm 1 m/s 751 mm Hg 77%
01:00 +13°C° 0 mm 1 m/s 751 mm Hg 78%
02:00 +12°C° 0 mm 1 m/s 751 mm Hg 79%
03:00 +12°C° 0 mm 1 m/s 751 mm Hg 80%
04:00 +12°C° 0 mm 1 m/s 751 mm Hg 81%
05:00 +12°C° 0 mm 1 m/s 751 mm Hg 82%
06:00 +14°C° 0 mm 1 m/s 751 mm Hg 75%
07:00 +16°C° 0 mm 1 m/s 751 mm Hg 69%
08:00 +18°C° 0 mm 2 m/s 751 mm Hg 63%
09:00 +19°C° 0 mm 2 m/s 752 mm Hg 58%
10:00 +21°C° 0 mm 2 m/s 752 mm Hg 54%
11:00 +22°C° 0 mm 3 m/s 752 mm Hg 49%
12:00 +24°C° 0 mm 3 m/s 751 mm Hg 48%
13:00 +24°C° 0 mm 3 m/s 751 mm Hg 47%
14:00 +25°C° 0 mm 3 m/s 751 mm Hg 45%
15:00 +25°C° 0 mm 3 m/s 751 mm Hg 48%
16:00 +24°C° 0 mm 3 m/s 750 mm Hg 51%
17:00 +24°C° 0 mm 3 m/s 750 mm Hg 53%
18:00 +21°C° 0 mm 2 m/s 750 mm Hg 58%
19:00 +20°C° 0 mm 2 m/s 750 mm Hg 64%
20:00 +18°C° 0 mm 2 m/s 750 mm Hg 69%
21:00 +17°C° 0 mm 2 m/s 750 mm Hg 70%
22:00 +17°C° 0 mm 2 m/s 750 mm Hg 71%
23:00 +16°C° 0 mm 2 m/s 750 mm Hg 72%

17 Agosto, Lunedi

Tempo Temperatura Precipitazioni Vento Pressione Umidità
00:00 +16°C° 0 mm 2 m/s 750 mm Hg 74%
01:00 +16°C° 0 mm 3 m/s 750 mm Hg 76%
02:00 +14°C° 0 mm 3 m/s 750 mm Hg 77%
03:00 +15°C° 0 mm 2 m/s 750 mm Hg 79%
04:00 +15°C° 0 mm 2 m/s 750 mm Hg 81%
05:00 +15°C° 0 mm 2 m/s 750 mm Hg 83%
06:00 +17°C° 0 mm 2 m/s 750 mm Hg 79%
07:00 +19°C° 0 mm 3 m/s 750 mm Hg 75%
08:00 +20°C° 0 mm 3 m/s 750 mm Hg 72%
09:00 +22°C° 0 mm 3 m/s 750 mm Hg 67%
10:00 +25°C° 0 mm 3 m/s 750 mm Hg 63%
11:00 +26°C° 0 mm 3 m/s 749 mm Hg 59%
12:00 +27°C° 0.1 mm 3 m/s 749 mm Hg 56%
13:00 +27°C° 0.1 mm 3 m/s 749 mm Hg 53%
14:00 +28°C° 0.1 mm 4 m/s 749 mm Hg 50%
15:00 +28°C° 0 mm 3 m/s 748 mm Hg 52%
16:00 +27°C° 0 mm 3 m/s 748 mm Hg 54%
17:00 +27°C° 0 mm 2 m/s 748 mm Hg 55%
18:00 +25°C° 0 mm 2 m/s 748 mm Hg 61%
19:00 +23°C° 0 mm 2 m/s 747 mm Hg 67%
20:00 +21°C° 0 mm 1 m/s 747 mm Hg 72%
21:00 +21°C° 0 mm 1 m/s 747 mm Hg 75%
22:00 +20°C° 0 mm 1 m/s 747 mm Hg 77%
23:00 +18°C° 0 mm 2 m/s 747 mm Hg 79%

18 Agosto, Martedi

Tempo Temperatura Precipitazioni Vento Pressione Umidità
00:00 +18°C° 0 mm 2 m/s 747 mm Hg 81%
01:00 +18°C° 0 mm 2 m/s 747 mm Hg 84%
02:00 +17°C° 0 mm 2 m/s 747 mm Hg 86%
03:00 +18°C° 0 mm 1 m/s 747 mm Hg 87%
04:00 +18°C° 0 mm 1 m/s 746 mm Hg 88%
05:00 +18°C° 0 mm 1 m/s 746 mm Hg 89%
06:00 +19°C° 0 mm 1 m/s 746 mm Hg 82%
07:00 +21°C° 0 mm 1 m/s 746 mm Hg 75%
08:00 +23°C° 0 mm 1 m/s 746 mm Hg 68%
09:00 +24°C° 0.3 mm 2 m/s 746 mm Hg 63%
10:00 +26°C° 0.3 mm 3 m/s 746 mm Hg 59%
11:00 +27°C° 0.3 mm 4 m/s 746 mm Hg 55%
12:00 +27°C° 0.2 mm 4 m/s 745 mm Hg 51%
13:00 +28°C° 0.2 mm 3 m/s 745 mm Hg 48%
14:00 +29°C° 0.2 mm 3 m/s 745 mm Hg 44%
15:00 +28°C° 0 mm 3 m/s 744 mm Hg 46%
16:00 +28°C° 0 mm 3 m/s 744 mm Hg 48%
17:00 +27°C° 0 mm 2 m/s 744 mm Hg 50%
18:00 +25°C° 0 mm 2 m/s 744 mm Hg 53%
19:00 +23°C° 0 mm 1 m/s 744 mm Hg 56%
20:00 +21°C° 0 mm 1 m/s 744 mm Hg 58%
21:00 +21°C° 0 mm 1 m/s 744 mm Hg 58%
22:00 +20°C° 0 mm 1 m/s 744 mm Hg 59%
23:00 +20°C° 0 mm 1 m/s 744 mm Hg 59%
Mostrare altro